This is the latest recevied weather packets stored in our database for station/object KE8GJZ-2. If no packets are shown the sender has not sent any weather packets the latest 10 day(s).
| Time | Temp. | Humidity | Pressure | Rain* | Wind** | Luminosity | Snow |
|---|---|---|---|---|---|---|---|
| 1778121983 | 8.89° C | 58% | 1013.5 hPa | 0 mm | - | 0 W/m² | - |
| 1778121680 | 8.89° C | 59% | 1013.6 hPa | 0 mm | - | 0 W/m² | - |
| 1778121375 | 8.89° C | 60% | 1013.6 hPa | 0 mm | - | 0 W/m² | - |
| 1778121073 | 8.89° C | 60% | 1013.5 hPa | 0 mm | - | 0 W/m² | - |
| 1778120769 | 8.89° C | 57% | 1013.1 hPa | 0 mm | - | 0 W/m² | - |
| 1778120465 | 9.44° C | 57% | 1013.2 hPa | 0 mm | - | 0 W/m² | - |
| 1778120161 | 9.44° C | 56% | 1013.2 hPa | 0 mm | - | 0 W/m² | - |
| 1778119857 | 9.44° C | 56% | 1013.2 hPa | 0 mm | - | 0 W/m² | - |
| 1778119556 | 9.44° C | 56% | 1013 hPa | 0 mm | - | 0 W/m² | - |
| 1778119251 | 9.44° C | 56% | 1013.1 hPa | 0 mm | - | 0 W/m² | - |
| 1778118950 | 9.44° C | 56% | 1013.1 hPa | 0 mm | - | 0 W/m² | - |
| 1778118647 | 9.44° C | 58% | 1013 hPa | 0 mm | - | 0 W/m² | - |
| 1778118344 | 9.44° C | 57% | 1012.9 hPa | 0 mm | - | 0 W/m² | - |
| 1778118039 | 9.44° C | 58% | 1012.8 hPa | 0 mm | - | 0 W/m² | - |
| 1778117737 | 9.44° C | 58% | 1012.9 hPa | 0 mm | - | 0 W/m² | - |
| 1778117434 | 10° C | 56% | 1012.9 hPa | 0 mm | - | 0 W/m² | - |
| 1778117131 | 10° C | 56% | 1013.1 hPa | 0 mm | - | 0 W/m² | - |
| 1778116827 | 10° C | 54% | 1012.8 hPa | 0 mm | - | 0 W/m² | - |
| 1778116525 | 10° C | 54% | 1012.8 hPa | 0 mm | - | 0 W/m² | - |
| 1778116220 | 10° C | 54% | 1012.8 hPa | 0 mm | - | 0 W/m² | - |
| 1778115915 | 10° C | 52% | 1012.6 hPa | 0 mm | - | 0 W/m² | - |
| 1778115612 | 10° C | 51% | 1012.8 hPa | 0 mm | - | 0 W/m² | - |
| 1778115309 | 10° C | 52% | 1012.6 hPa | 0 mm | - | 0 W/m² | - |
| 1778115005 | 10° C | 51% | 1012.7 hPa | 0 mm | - | 0 W/m² | - |
| 1778114702 | 10° C | 51% | 1012.6 hPa | 0 mm | - | 0 W/m² | - |
* Rain latest hour (hover to see other rain measurements)
** Current wind speed in m/s (hover to see current wind gust speed)